TimeCST,TemperatureF,Dew PointF,Humidity,Sea Level PressureIn,VisibilityMPH,Wind Direction,Wind SpeedMPH,Gust SpeedMPH,PrecipitationIn,Events,Conditions,WindDirDegrees,DateUTC
12:15 AM,34.9,24.3,65,30.34,10.0,NNE,12.7,-,N/A,,Clear,30,2012-12-05 06:15:00
12:35 AM,34.2,24.4,68,30.35,10.0,NNE,12.7,-,N/A,,Clear,30,2012-12-05 06:35:00
12:55 AM,33.3,23.9,69,30.36,10.0,NNE,11.5,-,N/A,,Clear,30,2012-12-05 06:55:00
1:15 AM,32.7,23.4,68,30.36,10.0,NNE,13.8,-,N/A,,Clear,30,2012-12-05 07:15:00
1:55 AM,31.6,22.6,69,30.37,10.0,NNE,12.7,-,N/A,,Clear,30,2012-12-05 07:55:00
2:15 AM,31.5,21.9,68,30.38,10.0,NE,5.8,-,N/A,,Clear,50,2012-12-05 08:15:00
2:35 AM,31.1,21.6,68,30.38,10.0,NE,5.8,-,N/A,,Clear,50,2012-12-05 08:35:00
2:55 AM,29.8,21.2,70,30.38,10.0,Calm,Calm,-,N/A,,Clear,0,2012-12-05 08:55:00
3:15 AM,28.9,21.0,72,30.38,10.0,Calm,Calm,-,N/A,,Clear,0,2012-12-05 09:15:00
3:35 AM,28.9,20.8,72,30.36,10.0,ENE,4.6,-,N/A,,Clear,70,2012-12-05 09:35:00
3:55 AM,27.5,20.5,75,30.36,10.0,ENE,3.5,-,N/A,,Clear,70,2012-12-05 09:55:00
4:15 AM,28.0,20.7,74,30.36,10.0,Calm,Calm,-,N/A,,Clear,0,2012-12-05 10:15:00
4:35 AM,27.7,20.3,74,30.35,10.0,Calm,Calm,-,N/A,,Clear,0,2012-12-05 10:35:00
4:55 AM,28.4,20.8,73,30.35,10.0,ENE,3.5,-,N/A,,Clear,60,2012-12-05 10:55:00
5:15 AM,27.5,20.3,74,30.36,10.0,Calm,Calm,-,N/A,,Clear,0,2012-12-05 11:15:00
5:35 AM,27.3,20.3,75,30.37,10.0,Calm,Calm,-,N/A,,Clear,0,2012-12-05 11:35:00
5:55 AM,26.4,19.9,77,30.37,10.0,NE,4.6,-,N/A,,Clear,50,2012-12-05 11:55:00
6:15 AM,26.1,20.3,79,30.38,10.0,East,3.5,-,N/A,,Clear,80,2012-12-05 12:15:00
6:35 AM,25.3,19.6,79,30.39,10.0,East,6.9,-,N/A,,Clear,80,2012-12-05 12:35:00
6:55 AM,24.4,19.4,81,30.38,10.0,East,6.9,-,N/A,,Clear,90,2012-12-05 12:55:00
8:35 AM,30.2,22.8,74,30.36,10.0,ESE,12.7,-,N/A,,Clear,110,2012-12-05 14:35:00
8:55 AM,32.0,23.7,71,30.37,10.0,ESE,11.5,-,N/A,,Clear,110,2012-12-05 14:55:00
9:15 AM,32.7,23.9,70,30.38,10.0,ESE,10.4,-,N/A,,Clear,120,2012-12-05 15:15:00
9:35 AM,34.5,24.1,66,30.38,10.0,SE,17.3,-,N/A,,Clear,130,2012-12-05 15:35:00
9:55 AM,35.6,24.8,65,30.38,10.0,SE,13.8,-,N/A,,Clear,130,2012-12-05 15:55:00
10:15 AM,36.9,24.6,61,30.37,10.0,SE,11.5,-,N/A,,Clear,130,2012-12-05 16:15:00
10:35 AM,37.8,24.6,59,30.37,10.0,SE,13.8,-,N/A,,Clear,140,2012-12-05 16:35:00
10:55 AM,38.8,24.8,57,30.36,10.0,SE,10.4,-,N/A,,Clear,140,2012-12-05 16:55:00
11:15 AM,40.1,25.0,55,30.35,10.0,SE,10.4,-,N/A,,Clear,140,2012-12-05 17:15:00
11:35 AM,41.0,25.0,53,30.33,10.0,ESE,11.5,-,N/A,,Clear,120,2012-12-05 17:35:00
11:55 AM,41.0,25.2,53,30.31,10.0,ESE,11.5,-,N/A,,Clear,120,2012-12-05 17:55:00
12:15 PM,41.5,25.2,52,30.30,10.0,SE,12.7,-,N/A,,Clear,130,2012-12-05 18:15:00
12:35 PM,42.8,25.5,51,30.29,10.0,SE,12.7,-,N/A,,Clear,140,2012-12-05 18:35:00
12:55 PM,44.1,26.1,49,30.28,10.0,SE,13.8,-,N/A,,Clear,140,2012-12-05 18:55:00
1:15 PM,44.2,26.2,49,30.27,10.0,SE,13.8,-,N/A,,Clear,140,2012-12-05 19:15:00
1:35 PM,44.6,26.6,49,30.26,10.0,SE,12.7,-,N/A,,Clear,140,2012-12-05 19:35:00
1:55 PM,44.6,26.6,49,30.25,10.0,SE,12.7,-,N/A,,Clear,140,2012-12-05 19:55:00
2:15 PM,45.5,27.1,49,30.23,10.0,SE,13.8,-,N/A,,Clear,130,2012-12-05 20:15:00
2:35 PM,45.9,27.1,48,30.22,10.0,SE,13.8,-,N/A,,Clear,140,2012-12-05 20:35:00
2:55 PM,45.5,27.0,48,30.22,10.0,SE,13.8,-,N/A,,Clear,140,2012-12-05 20:55:00
3:15 PM,45.5,27.1,49,30.22,10.0,SE,12.7,-,N/A,,Clear,130,2012-12-05 21:15:00
3:35 PM,45.1,27.3,50,30.21,10.0,SE,11.5,-,N/A,,Clear,140,2012-12-05 21:35:00
3:55 PM,44.8,27.5,51,30.21,10.0,SE,13.8,-,N/A,,Clear,140,2012-12-05 21:55:00
4:15 PM,44.2,27.9,53,30.20,10.0,SE,9.2,-,N/A,,Clear,140,2012-12-05 22:15:00
4:35 PM,43.5,28.2,55,30.19,10.0,SE,10.4,-,N/A,,Clear,140,2012-12-05 22:35:00
4:55 PM,43.0,28.4,56,30.18,10.0,SE,10.4,-,N/A,,Clear,130,2012-12-05 22:55:00
5:15 PM,42.4,28.8,58,30.18,10.0,SE,9.2,-,N/A,,Clear,130,2012-12-05 23:15:00
5:35 PM,42.4,29.1,59,30.18,10.0,SE,10.4,-,N/A,,Clear,130,2012-12-05 23:35:00
5:55 PM,42.1,29.3,61,30.17,10.0,SE,10.4,-,N/A,,Clear,140,2012-12-05 23:55:00
6:15 PM,41.9,30.0,63,30.17,10.0,SE,9.2,-,N/A,,Clear,140,2012-12-06 00:15:00
6:35 PM,41.9,30.2,63,30.15,10.0,SE,11.5,-,N/A,,Clear,140,2012-12-06 00:35:00
6:55 PM,41.4,30.6,65,30.15,10.0,SE,9.2,-,N/A,,Clear,140,2012-12-06 00:55:00
7:15 PM,41.2,30.7,66,30.14,10.0,SE,10.4,-,N/A,,Clear,130,2012-12-06 01:15:00
7:35 PM,41.0,30.9,67,30.14,10.0,SE,10.4,-,N/A,,Clear,140,2012-12-06 01:35:00
7:55 PM,41.0,31.1,68,30.12,10.0,SE,11.5,-,N/A,,Clear,140,2012-12-06 01:55:00
8:15 PM,41.0,31.1,68,30.11,10.0,SE,13.8,-,N/A,,Clear,140,2012-12-06 02:15:00
8:35 PM,40.5,31.5,70,30.11,10.0,SE,15.0,-,N/A,,Clear,130,2012-12-06 02:35:00
8:55 PM,40.5,31.8,71,30.10,10.0,SE,15.0,-,N/A,,Clear,140,2012-12-06 02:55:00
9:15 PM,41.0,32.0,70,30.09,10.0,SE,15.0,-,N/A,,Clear,140,2012-12-06 03:15:00
9:35 PM,41.0,32.2,71,30.08,10.0,SSE,13.8,-,N/A,,Clear,150,2012-12-06 03:35:00
9:55 PM,41.0,32.5,72,30.08,10.0,SSE,11.5,-,N/A,,Clear,150,2012-12-06 03:55:00
10:15 PM,41.4,32.9,72,30.08,10.0,SSE,11.5,-,N/A,,Clear,150,2012-12-06 04:15:00
10:35 PM,41.5,33.3,72,30.07,10.0,SSE,11.5,-,N/A,,Clear,150,2012-12-06 04:35:00
10:55 PM,41.7,33.8,73,30.07,10.0,SSE,10.4,-,N/A,,Clear,150,2012-12-06 04:55:00
11:15 PM,42.6,34.0,71,30.06,10.0,SSE,15.0,-,N/A,,Clear,160,2012-12-06 05:15:00
11:35 PM,42.8,34.3,72,30.05,10.0,SSE,17.3,-,N/A,,Clear,160,2012-12-06 05:35:00
11:55 PM,43.3,34.7,72,30.05,10.0,SSE,16.1,-,N/A,,Clear,160,2012-12-06 05:55:00